www.pogodaiklimat.ru

Погода и климат >> Архив погоды >> Южная Африка >> Коматидрааи


ПОГОДА в Коматидрааи

  • Прогноз погоды в Коматидрааи
  • Монитор погоды в Коматидрааи

АРХИВ ПОГОДЫ в Коматидрааи

Время (UTC), дата Ветер
(напр.,м/с)
 
Видим.   Явления Облачность Т
(С)
Тd
(С)
f
(%)
Тe
(С)
Тes
(С)
Комфортность P
(гПа)
Po
(гПа)
Тmin
(С)
Tmax
(С)
R
(мм)
R24
(мм)
S
(см)
12 11.06 СВ 1 н/о н/о +27.4 +13.6 43 +29 +29 жарко 1001.1 +9.1 +27.4
15 11.06 штиль 0 н/о н/о +24.0 +13.1 51 +26 +26 жарко 1001.4 +24.0 +28.0
18 11.06 Ю 2 н/о н/о +17.7 +11.8 68 +18 +18 1001.7 +17.7 +28.0
06 12.06 С 2 н/о н/о +12.9 +9.9 82 +12 +12 1001.3 +10.8
09 12.06 СЗ 3 н/о н/о +25.4 +11.7 42 +27 +27 жарко 1000.1 +10.8 +25.4
12 12.06 СЗ 3 н/о н/о +30.2 +7.7 24 +29 +29 жарко 996.6 +10.8 +30.5
15 12.06 С 2 н/о н/о +25.0 +9.5 37 +26 +26 жарко 995.8 +25.0 +30.6
18 12.06 СВ 1 н/о н/о +18.8 +7.9 49 +20 +20 997.1 +18.7 +30.6
21 12.06 СЗ 2 н/о н/о +15.3 +7.9 61 +16 +16 997.9 +15.3 +30.6
06 13.06 Ю 3 н/о н/о +17.7 +11.5 67 +18 +18 1003.4 +10.6
09 13.06 Ю 4 н/о н/о +22.3 +13.7 58 +25 +25 комфорт 1005.0 +10.6 +22.3
12 13.06 Ю 5 н/о н/о +21.7 +11.8 53 +24 +24 комфорт 1005.0 +10.6 +23.1
15 13.06 ЮВ 5 н/о н/о +20.1 +9.4 50 +21 +21 комфорт 1007.0 +20.1 +23.1
18 13.06 Ю 4 н/о н/о +16.5 +9.5 63 +16 +16 1009.1 +16.5 +23.1
21 13.06 Ю 4 н/о н/о +14.2 +8.6 69 +13 +13 1010.3 +14.2 +23.1
00 14.06 Ю 3 н/о н/о +13.0 +9.2 78 +12 +12 1009.3 +13.0 +23.1
09 14.06 Ю 4 н/о н/о +20.0 +9.6 51 +21 +21 комфорт 1010.4 +11.8 +20.0
12 14.06 ЮВ 1 н/о н/о +23.1 +9.3 41 +25 +25 комфорт 1007.2 +11.8 +23.1
15 14.06 штиль 0 н/о н/о +20.4 +10.3 52 +22 +22 комфорт 1006.4 +20.4 +23.3
18 14.06 ЮВ 2 н/о н/о +15.0 +10.6 75 +15 +15 1008.1 +15.0 +23.3
21 14.06 ЮЗ 2 н/о н/о +12.3 +10.0 86 +12 +12 1008.3 +12.2 +23.3
00 15.06 штиль 0 н/о н/о +10.1 +7.8 86 +9 +9 1007.3 +10.1 +23.3
03 15.06 З 1 н/о н/о +10.3 +8.5 89 +10 +10 1006.3 +9.8 +23.3
06 15.06 ЮЗ 1 н/о н/о +10.7 +8.9 89 +10 +10 1007.6 +8.8
09 15.06 С 2 н/о н/о +19.8 +12.1 61 +22 +22 комфорт 1006.9 +8.8 +19.8
12 15.06 С 3 н/о н/о +23.5 +9.3 40 +24 +24 комфорт 1003.5 +8.8 +23.9
15 15.06 С 1 н/о н/о +21.2 +9.2 46 +22 +22 комфорт 1002.9 +21.2 +24.1
18 15.06 СЗ 2 н/о н/о +14.8 +7.8 63 +15 +15 1003.6 +14.8 +24.1
21 15.06 СЗ 1 н/о н/о +12.4 +7.5 72 +12 +12 1004.0 +12.4 +24.1
00 16.06 С 2 н/о н/о +9.5 +6.2 80 +8 +8 1003.1 +9.5 +24.1
03 16.06 С 2 н/о н/о +7.6 +5.2 85 +5 +5 1002.7 +7.6 +24.1
06 16.06 С 1 н/о н/о +9.1 +6.3 83 +8 +8 1003.5 +6.9
09 16.06 С 1 н/о н/о +19.6 +9.6 52 +22 +22 комфорт 1004.5 +6.9 +19.6
12 16.06 В 1 н/о н/о +25.5 +7.8 32 +26 +26 жарко 1002.2 +6.9 +25.5
15 16.06 штиль 0 н/о н/о +22.4 +8.6 41 +24 +24 комфорт 1002.5 +22.4 +27.1
18 16.06 ЮВ 1 н/о н/о +16.6 +11.8 73 +17 +17 1004.5 +16.4 +27.1
21 16.06 ЮЗ 2 н/о н/о +13.2 +10.7 85 +12 +12 1005.7 +13.2 +27.1
00 17.06 штиль 0 н/о н/о +10.6 +8.5 87 +10 +10 1005.0 +10.6 +27.1
03 17.06 штиль 0 н/о н/о +9.0 +7.2 88 +8 +8 1005.5 +9.0 +27.1
06 17.06 С 1 н/о н/о +10.0 +7.7 86 +9 +9 1006.8 +8.1
09 17.06 СВ 2 н/о н/о +21.8 +13.0 57 +24 +24 комфорт 1006.3 +8.1 +21.8
12 17.06 С 3 н/о н/о +26.0 +11.2 40 +27 +27 жарко 1002.5 +8.1 +26.0
15 17.06 СВ 2 н/о н/о +22.4 +11.6 50 +25 +25 комфорт 1001.0 +22.4 +26.2
18 17.06 СЗ 2 н/о н/о +16.5 +9.7 64 +17 +17 1002.6 +16.5 +26.2
21 17.06 З 2 н/о н/о +13.6 +9.6 77 +13 +13 1003.3 +13.6 +26.2
00 18.06 С 2 н/о н/о +11.6 +8.1 79 +10 +10 1002.2 +11.5 +26.2
03 18.06 СВ 2 н/о н/о +9.7 +6.9 83 +9 +9 1002.4 +9.7 +26.2
06 18.06 ЮЗ 2 н/о н/о +10.4 +8.1 86 +9 +9 1004.6 +8.1
09 18.06 ЮЗ 3 н/о н/о +20.6 +10.5 52 +23 +23 комфорт 1005.7 +8.1 +20.6

 

Местоположение метеостанции Коматидрааи (Южная Африка): широта -25.51 долгота 31.90 высота над уровнем моря 183 м.

В архиве по умолчанию представлена погода в Коматидрааи за последнюю неделю. Архивные данные за месяц целиком и за предыдущие месяцы, начиная с января 2011 года, Вы можете получить, выбрав интересующий диапазон дат из раскрывающегося списка и нажав кнопку "Ввод!".


*Определитесь, кто Вы:
робот инопланетянин человек

Внимание! Время в таблицах - всемирное. Для получения местного времени необходимо прибавить поправку, которая равна 2 ч.

Смотрите также архив погоды в соседних городах и на ближайших метеорологических станциях:

Погода в Майиване (Свазиленд) (58 км)
Погода в Скукузе (Южная Африка) (66 км)
Погода в Мапуту (Мозамбик) (81 км)
Погода в Пиггс-Пике (Свазиленд) (83 км)
Погода в Чангалане (Мозамбик) (90 км)
Погода в Мбомбеле (Южная Африка) (98 км)
Погода в Ситеки (Свазиленд) (102 км)
Погода в Граскопе (Южная Африка) (124 км)
Погода в Граскоп-Скуле (Южная Африка) (126 км)
Погода в Манзини (Свазиленд) (128 км)

Пояснения к столбцам:

Ветер - указаны скорость ветра в м/с - средняя за 10 мин, порывы в срок и между сроками (в фигурных скобках) и направление, откуда дует ветер: С - северный, СВ - северо-восточный, В - восточный, ЮВ - юго-восточный, Ю - южный, ЮЗ - юго-западный, З - западный, СЗ - северо-западный.
Видимость - горизонтальная дальность видимости в метрах или километрах. При видимости от 1 до 10 км при отсутствии осадков обычно наблюдается дымка, при ухудшении видимости до 1 км и менее - туман. В сухую погоду видимость может ухудшаться дымом, пылью или мглою.
Явления - указаны атмосферные явления, наблюдавшиеся в срок или в последний час перед сроком; фигурными скобками обозначены явления, наблюдавшиеся между сроками (за 1-3 часа до срока); квадратными скобками обозначены град или гололедные отложения с указанием их диаметра в мм.
Облачность - указаны через наклонную черту общая и нижняя облачность в баллах и высота нижней границы облаков в метрах; квадратными скобками обозначены формы облаков: Ci - перистые, Cs - перисто-слоистые, Cc - перисто-кучевые, Ac - высококучевые, As - высокослоистые, Sc - слоисто-кучевые, Ns - слоисто-дождевые, Cu - кучевые, Cb - кучево-дождевые. Подробнее классификацию облаков см. в Атласе облаков (PDF).
T - Температура воздуха - температура, измеренная на высоте 2 м над землей.
Td - Температура точки росы - температура, при понижении до которой содержащийся в воздухе водяной пар достигнет насыщения.
f - Относительная влажность воздуха - влажноcть воздуха, измеренная на высоте 2 м над землей.
Te - Эффективная температура - температура, которую ощущает одетый по сезону человек в тени. Характеристика душности погоды. При расчете учитывается влияние влажности воздуха и скорости ветра на теплоощущения человека.
Tes - Эффективная температура на солнце - температура, которую ощущает человек, с поправкой на солнечный нагрев. Характеристика знойности погоды. Зависит от высоты солнца над горизонтом, облачности и скорости ветра. Ночью, в пасмурную погоду, а также при ветре 12 м/с и более поправка равна нулю.
P - Атмосферное давление - приведенное к уровню моря атмосферное давление.
Po - Атмосферное давление - измеренное на уровне метеостанции атмосферное давление.
Tmin - Минимальная температура - минимум температуры воздуха на высоте 2 м над землей.
Tmax - Максимальная температура - максимум температуры воздуха на высоте 2 м над землей.
R - Количество осадков - Количество выпавших осадков за период времени, мм. При наведении курсора мыши на число - период времени, за который выпало указанное количество осадков.
R24 - Количество осадков - Количество выпавших осадков за 24 часа, мм.
S - Снежный покров - Высота снежного покрова, см. При наведении курсора мыши на число - состояние снежного покрова и степень покрытия местности в баллах.